Zurück zum Katalog

STARLINK-32383

AktivKommunikationVLEO
NORAD 61891·PAYLOAD·🇺🇸 United States

Gestartet Nov 9, 2024 von Vandenberg Space Force Base

Loading…

Nächste Überflüge (nächste 24 Stunden)

TLE

AktuellSource: CelesTrak SupGP

Epoche: Sep 14, 2026, 20:43 UTC

1 61891C 24204T   26257.86368056 -.00020951  00000+0 -61913-3 0  2579
2 61891  53.1584 324.2865 0001194  81.5645 102.0934 15.34394003    19

Verfolge STARLINK-32383 in Echtzeit mit AllMySat

Download on the App Store